,,,PA_Meas_PMT16A,,PR_Meas_QMR101_102,,RH_Meas_QMH101,,SR_Meas_QMS101,,TA_Meas_QMH101,,GenWind,,GenWind,
date,time,status,PA,status,PR,status,RH,status,SR,status,TA,status,DirAvg,status,SpdAvg,
2008-05-28, 00:00:05,VALID,1005.59,VALID,0,VALID,94.1328,VALID,0,VALID,22.7906,VALID,4,VALID,0.675391,
2008-05-28, 00:01:05,VALID,1005.63,VALID,0,VALID,94.2167,VALID,0,VALID,22.7694,VALID,3,VALID,0.475781,
2008-05-28, 00:02:05,VALID,1005.63,VALID,0,VALID,94.4303,VALID,0,VALID,22.7499,VALID,6,VALID,0.684766,
2008-05-28, 00:03:05,VALID,1005.67,VALID,0,VALID,94.5371,VALID,0,VALID,22.7694,VALID,32,VALID,0.441406,
2008-05-28, 00:04:05,VALID,1005.68,VALID,0,VALID,94.7431,VALID,0.100563,VALID,22.7694,VALID,32,VALID,0.267578,
2008-05-28, 00:05:05,VALID,1005.69,VALID,0,VALID,94.7812,VALID,0.100563,VALID,22.7888,VALID,32,VALID,0.00585938,
2008-05-28, 00:06:05,VALID,1005.68,VALID,0,VALID,94.8499,VALID,0.100563,VALID,22.7871,VALID,32,VALID,0.0320312,
2008-05-28, 00:07:05,VALID,1005.7,VALID,0,VALID,94.8956,VALID,0,VALID,22.8295,VALID,55,VALID,0.418359,
2008-05-28, 00:08:05,VALID,1005.68,VALID,0,VALID,94.8117,VALID,0,VALID,22.8083,VALID,76,VALID,0.458984,
2008-05-28, 00:09:05,VALID,1005.69,VALID,0,VALID,94.7202,VALID,0.100563,VALID,22.7694,VALID,85,VALID,0.746094,
2008-05-28, 00:10:05,VALID,1005.67,VALID,0,VALID,94.8194,VALID,0.100563,VALID,22.7888,VALID,86,VALID,0.195313,
2008-05-28, 00:11:05,VALID,1005.72,VALID,0,VALID,94.888,VALID,0.100563,VALID,22.8295,VALID,86,VALID,0.190625,
2008-05-28, 00:12:05,VALID,1005.7,VALID,0,VALID,94.8499,VALID,0.100563,VALID,22.7888,VALID,84,VALID,0.555078,
2008-05-28, 00:13:05,VALID,1005.73,VALID,0,VALID,94.8728,VALID,0,VALID,22.7888,VALID,100,VALID,0.3375,
2008-05-28, 00:14:04,VALID,1005.71,VALID,0,VALID,94.8575,VALID,0.100563,VALID,22.7694,VALID,24,VALID,0.714844,
2008-05-28, 00:15:04,VALID,1005.65,VALID,0,VALID,94.9414,VALID,0,VALID,22.7888,VALID,40,VALID,0.783203,
2008-05-28, 00:16:04,VALID,1005.6,VALID,0,VALID,95.0177,VALID,0.100563,VALID,22.7677,VALID,344,VALID,0.779688,
2008-05-28, 00:17:04,VALID,1005.59,VALID,0,VALID,95.0787,VALID,0.100563,VALID,22.7888,VALID,354,VALID,0.479688,
2008-05-28, 00:18:04,VALID,1005.57,VALID,0,VALID,95.1474,VALID,0,VALID,22.8083,VALID,357,VALID,0.734375,
2008-05-28, 00:19:04,VALID,1005.56,VALID,0,VALID,95.155,VALID,0,VALID,22.8278,VALID,356,VALID,0.775,
2008-05-28, 00:20:04,VALID,1005.57,VALID,0,VALID,95.2695,VALID,0,VALID,22.8684,VALID,356,VALID,0.221094,
2008-05-28, 00:21:04,VALID,1005.55,VALID,0,VALID,95.2389,VALID,0,VALID,22.8472,VALID,356,VALID,0.394141,
2008-05-28, 00:22:04,VALID,1005.55,VALID,0,VALID,95.2466,VALID,0.100563,VALID,22.8472,VALID,356,VALID,0.279297,
2008-05-28, 00:23:04,VALID,1005.52,VALID,0,VALID,95.3229,VALID,0.100563,VALID,22.8667,VALID,356,VALID,0.00117188,
2008-05-28, 00:24:04,VALID,1005.51,VALID,0,VALID,95.3381,VALID,0,VALID,22.8879,VALID,356,VALID,0,
2008-05-28, 00:25:04,VALID,1005.5,VALID,0,VALID,95.3381,VALID,0,VALID,22.8879,VALID,356,VALID,0.0597656,
2008-05-28, 00:26:04,VALID,1005.46,VALID,0,VALID,95.4373,VALID,0,VALID,22.9073,VALID,356,VALID,0.326953,
2008-05-28, 00:27:04,VALID,1005.44,VALID,0,VALID,95.4526,VALID,0,VALID,22.9268,VALID,356,VALID,0.594922,
2008-05-28, 00:28:04,VALID,1005.43,VALID,0,VALID,95.4678,VALID,0.100563,VALID,22.9251,VALID,356,VALID,0.615234,
2008-05-28, 00:29:04,VALID,1005.45,VALID,0,VALID,95.4983,VALID,0,VALID,22.9445,VALID,352,VALID,0.339844,
2008-05-28, 00:30:04,VALID,1005.47,VALID,0,VALID,95.4373,VALID,0,VALID,22.9463,VALID,34,VALID,0.564062,
2008-05-28, 00:31:04,VALID,1005.5,VALID,0,VALID,95.4373,VALID,0.100563,VALID,22.9251,VALID,65,VALID,0.348828,
2008-05-28, 00:32:04,VALID,1005.43,VALID,0,VALID,95.4297,VALID,0.100563,VALID,22.9251,VALID,65,VALID,0.251953,
2008-05-28, 00:33:04,VALID,1005.46,VALID,0,VALID,95.4526,VALID,0,VALID,22.9251,VALID,65,VALID,0.339063,
2008-05-28, 00:34:04,VALID,1005.43,VALID,0,VALID,95.3534,VALID,0,VALID,22.9056,VALID,7,VALID,0.582031,
2008-05-28, 00:35:04,VALID,1005.43,VALID,0,VALID,95.3991,VALID,0,VALID,22.8879,VALID,360,VALID,0.439453,
2008-05-28, 00:36:04,VALID,1005.38,VALID,0,VALID,95.506,VALID,0.100563,VALID,22.9056,VALID,8,VALID,0.659375,
2008-05-28, 00:37:04,VALID,1005.38,VALID,0,VALID,95.5288,VALID,0,VALID,22.9268,VALID,13,VALID,0.493359,
2008-05-28, 00:38:04,VALID,1005.33,VALID,0,VALID,95.5288,VALID,0,VALID,22.9251,VALID,13,VALID,0.445313,
2008-05-28, 00:39:04,VALID,1005.29,VALID,0,VALID,95.506,VALID,0,VALID,22.9056,VALID,13,VALID,0.454297,
2008-05-28, 00:40:04,VALID,1005.27,VALID,0,VALID,95.5822,VALID,0,VALID,22.9463,VALID,13,VALID,0.339453,
2008-05-28, 00:41:04,VALID,1005.25,VALID,0,VALID,95.5441,VALID,0,VALID,22.9056,VALID,13,VALID,0.469141,
2008-05-28, 00:42:04,VALID,1005.25,VALID,0,VALID,95.5746,VALID,0,VALID,22.9056,VALID,13,VALID,0.0238281,
2008-05-28, 00:43:04,VALID,1005.22,VALID,0,VALID,95.6356,VALID,0,VALID,22.9445,VALID,13,VALID,0,
2008-05-28, 00:44:04,VALID,1005.25,VALID,0,VALID,95.6433,VALID,0,VALID,22.964,VALID,13,VALID,0.207422,
2008-05-28, 00:45:04,VALID,1005.24,VALID,0,VALID,95.7196,VALID,0,VALID,22.9852,VALID,13,VALID,0.197266,
2008-05-28, 00:46:04,VALID,1005.27,VALID,0,VALID,95.6967,VALID,0,VALID,23.0046,VALID,13,VALID,0.489453,
2008-05-28, 00:47:04,VALID,1005.24,VALID,0,VALID,95.689,VALID,0,VALID,23.0046,VALID,13,VALID,0.498047,
2008-05-28, 00:48:04,VALID,1005.24,VALID,0,VALID,95.6585,VALID,0,VALID,23.0241,VALID,13,VALID,0.337109,
2008-05-28, 00:49:04,VALID,1005.26,VALID,0,VALID,95.6662,VALID,0,VALID,23.0046,VALID,13,VALID,0.430469,
2008-05-28, 00:50:04,VALID,1005.23,VALID,0,VALID,95.6814,VALID,0,VALID,23.0241,VALID,13,VALID,0.519922,
2008-05-28, 00:51:04,VALID,1005.22,VALID,0,VALID,95.5975,VALID,0,VALID,22.964,VALID,13,VALID,0.591797,
2008-05-28, 00:52:04,VALID,1005.19,VALID,0,VALID,95.5212,VALID,0,VALID,22.9445,VALID,12,VALID,0.509766,
2008-05-28, 00:53:04,VALID,1005.15,VALID,0,VALID,95.506,VALID,0,VALID,22.9251,VALID,11,VALID,0.46875,
2008-05-28, 00:54:04,VALID,1005.14,VALID,0,VALID,95.5288,VALID,0,VALID,22.9056,VALID,11,VALID,0.505469,
2008-05-28, 00:55:04,VALID,1005.08,VALID,0,VALID,95.6128,VALID,0,VALID,22.9268,VALID,5,VALID,0.495313,
2008-05-28, 00:56:04,VALID,1005.08,VALID,0,VALID,95.6433,VALID,0,VALID,22.9056,VALID,5,VALID,0.490234,
2008-05-28, 00:57:04,VALID,1005.05,VALID,0,VALID,95.6814,VALID,0,VALID,22.9463,VALID,5,VALID,0.535156,
2008-05-28, 00:58:04,VALID,1005.04,VALID,0,VALID,95.6356,VALID,0,VALID,22.9056,VALID,5,VALID,0.291406,
2008-05-28, 00:59:04,VALID,1005.01,VALID,0,VALID,95.6509,VALID,0,VALID,22.9268,VALID,1,VALID,0.296484,
2008-05-28, 01:00:04,VALID,1004.98,VALID,0,VALID,95.7348,VALID,0,VALID,22.9445,VALID,1,VALID,0.103125,
2008-05-28, 01:01:04,VALID,1004.95,VALID,0,VALID,95.773,VALID,0,VALID,22.9233,VALID,1,VALID,0.00664063,
2008-05-28, 01:02:04,VALID,1004.95,VALID,0,VALID,95.7043,VALID,0,VALID,22.9657,VALID,359,VALID,0.505469,
2008-05-28, 01:03:04,VALID,1004.91,VALID,0,VALID,95.6967,VALID,0,VALID,22.9445,VALID,353,VALID,0.819141,
2008-05-28, 01:04:04,VALID,1004.92,VALID,0,VALID,95.7119,VALID,0,VALID,22.9463,VALID,351,VALID,0.703516,
2008-05-28, 01:05:04,VALID,1004.88,VALID,0,VALID,95.6356,VALID,0,VALID,22.9251,VALID,5,VALID,0.497266,
2008-05-28, 01:06:04,VALID,1004.88,VALID,0,VALID,95.5899,VALID,0,VALID,22.9268,VALID,355,VALID,0.618359,
2008-05-28, 01:07:04,VALID,1004.85,VALID,0,VALID,95.5975,VALID,0,VALID,22.9056,VALID,360,VALID,0.711719,
2008-05-28, 01:08:04,VALID,1004.86,VALID,0,VALID,95.5517,VALID,0,VALID,22.8667,VALID,353,VALID,0.839063,
2008-05-28, 01:09:04,VALID,1004.83,VALID,0,VALID,95.5899,VALID,0.100563,VALID,22.8472,VALID,2,VALID,0.814453,
2008-05-28, 01:10:04,VALID,1004.81,VALID,0,VALID,95.6662,VALID,0,VALID,22.8472,VALID,3,VALID,0.565234,
2008-05-28, 01:11:04,VALID,1004.79,VALID,0,VALID,95.6662,VALID,0,VALID,22.8472,VALID,3,VALID,0.565234,
2008-05-28, 01:12:04,VALID,1004.77,VALID,0,VALID,95.7424,VALID,0,VALID,22.8667,VALID,8,VALID,0.467578,
2008-05-28, 01:13:04,VALID,1004.75,VALID,0,VALID,95.7882,VALID,0,VALID,22.9073,VALID,6,VALID,0.371484,
2008-05-28, 01:14:04,VALID,1004.74,VALID,0,VALID,95.7501,VALID,0,VALID,22.8649,VALID,360,VALID,0.470313,
2008-05-28, 01:15:04,VALID,1004.76,VALID,0,VALID,95.7882,VALID,0,VALID,22.9073,VALID,360,VALID,0.00117188,
2008-05-28, 01:16:04,VALID,1004.74,VALID,0,VALID,95.7577,VALID,0.100563,VALID,22.9056,VALID,360,VALID,0.245703,
2008-05-28, 01:17:04,VALID,1004.76,VALID,0,VALID,95.8035,VALID,0.100563,VALID,22.9056,VALID,360,VALID,0.415234,
2008-05-28, 01:18:04,VALID,1004.78,VALID,0,VALID,95.9027,VALID,0,VALID,22.964,VALID,29,VALID,1.08398,
2008-05-28, 01:19:04,VALID,1004.76,VALID,0,VALID,95.895,VALID,0,VALID,22.9834,VALID,52,VALID,0.941797,
2008-05-28, 01:20:04,VALID,1004.76,VALID,0,VALID,95.7424,VALID,0,VALID,23.0436,VALID,39,VALID,1.28633,
2008-05-28, 01:21:04,VALID,1004.76,VALID,0,VALID,95.6509,VALID,0,VALID,23.1037,VALID,6,VALID,0.485156,
2008-05-28, 01:22:04,VALID,1004.7,VALID,0,VALID,95.5212,VALID,0,VALID,23.1019,VALID,25,VALID,0.604297,
2008-05-28, 01:23:04,VALID,1004.68,VALID,0,VALID,95.3763,VALID,0,VALID,23.1214,VALID,38,VALID,0.963672,
2008-05-28, 01:24:04,VALID,1004.62,VALID,0,VALID,95.2466,VALID,0,VALID,23.1214,VALID,37,VALID,1.13125,
2008-05-28, 01:25:04,VALID,1004.59,VALID,0,VALID,95.1093,VALID,0,VALID,23.1409,VALID,21,VALID,1.025,
2008-05-28, 01:26:04,VALID,1004.55,VALID,0,VALID,95.033,VALID,0,VALID,23.1603,VALID,24,VALID,0.294141,
2008-05-28, 01:27:04,VALID,1004.55,VALID,0,VALID,95.0024,VALID,0,VALID,23.1603,VALID,24,VALID,0,
2008-05-28, 01:28:04,VALID,1004.56,VALID,0,VALID,94.8956,VALID,0,VALID,23.1603,VALID,107,VALID,0.493359,
2008-05-28, 01:29:04,VALID,1004.54,VALID,0,VALID,94.8499,VALID,0,VALID,23.1409,VALID,101,VALID,0.402734,
2008-05-28, 01:30:04,VALID,1004.58,VALID,0,VALID,94.8422,VALID,0,VALID,23.1603,VALID,41,VALID,0.665234,
2008-05-28, 01:31:04,VALID,1004.55,VALID,0,VALID,94.9185,VALID,0,VALID,23.1993,VALID,48,VALID,0.374609,
2008-05-28, 01:32:04,VALID,1004.58,VALID,0,VALID,94.8194,VALID,0,VALID,23.217,VALID,43,VALID,0.0539063,
2008-05-28, 01:33:04,VALID,1004.55,VALID,0,VALID,94.7888,VALID,0,VALID,23.2577,VALID,112,VALID,0.324609,
2008-05-28, 01:34:04,VALID,1004.56,VALID,0,VALID,94.7125,VALID,0.100563,VALID,23.2754,VALID,188,VALID,0.607031,
2008-05-28, 01:35:04,VALID,1004.56,VALID,0,VALID,94.5905,VALID,0,VALID,23.2966,VALID,201,VALID,0.822656,
2008-05-28, 01:36:04,VALID,1004.55,VALID,0,VALID,94.56,VALID,0,VALID,23.2152,VALID,202,VALID,0.759375,
2008-05-28, 01:37:04,VALID,1004.56,VALID,0,VALID,94.6897,VALID,0.100563,VALID,23.2152,VALID,185,VALID,0.537109,
2008-05-28, 01:38:04,VALID,1004.55,VALID,0,VALID,94.7049,VALID,0.100563,VALID,23.2347,VALID,162,VALID,0.553516,
2008-05-28, 01:39:04,VALID,1004.56,VALID,0,VALID,94.6591,VALID,0.100563,VALID,23.2152,VALID,132,VALID,0.671484,
2008-05-28, 01:40:04,VALID,1004.54,VALID,0,VALID,94.621,VALID,0,VALID,23.2754,VALID,110,VALID,0.409766,
2008-05-28, 01:41:04,VALID,1004.55,VALID,0,VALID,94.5981,VALID,0.100563,VALID,23.2577,VALID,105,VALID,0.369141,
2008-05-28, 01:42:04,VALID,1004.54,VALID,0,VALID,94.4455,VALID,0,VALID,23.2559,VALID,105,VALID,0.427734,
2008-05-28, 01:43:04,VALID,1004.55,VALID,0,VALID,94.4227,VALID,0.100563,VALID,23.2559,VALID,105,VALID,0.198047,
2008-05-28, 01:44:04,VALID,1004.54,VALID,0,VALID,94.4379,VALID,0.100563,VALID,23.2559,VALID,98,VALID,0.187891,
2008-05-28, 01:45:04,VALID,1004.54,VALID,0,VALID,94.4455,VALID,0.100563,VALID,23.2559,VALID,98,VALID,0.0234375,
2008-05-28, 01:46:04,VALID,1004.55,VALID,0,VALID,94.4761,VALID,0,VALID,23.2364,VALID,98,VALID,0.0660156,
2008-05-28, 01:47:04,VALID,1004.57,VALID,0,VALID,94.4913,VALID,0.100563,VALID,23.2364,VALID,98,VALID,0,
2008-05-28, 01:48:04,VALID,1004.56,VALID,0,VALID,94.5447,VALID,0.100563,VALID,23.217,VALID,98,VALID,0.0429688,
2008-05-28, 01:49:04,VALID,1004.58,VALID,0,VALID,94.5523,VALID,0.100563,VALID,23.217,VALID,98,VALID,0.256641,
2008-05-28, 01:50:04,VALID,1004.6,VALID,0,VALID,94.5447,VALID,0,VALID,23.1957,VALID,136,VALID,0.660156,
2008-05-28, 01:51:04,VALID,1004.63,VALID,0,VALID,94.682,VALID,0.100563,VALID,23.217,VALID,145,VALID,0.328906,
2008-05-28, 01:52:04,VALID,1004.66,VALID,0,VALID,94.7278,VALID,0.100563,VALID,23.1975,VALID,145,VALID,0.262891,
2008-05-28, 01:53:04,VALID,1004.7,VALID,0,VALID,94.6744,VALID,0,VALID,23.1975,VALID,145,VALID,0.373047,
2008-05-28, 01:54:04,VALID,1004.7,VALID,0,VALID,94.5447,VALID,0.100563,VALID,23.1179,VALID,145,VALID,0.528516,
2008-05-28, 01:55:04,VALID,1004.71,VALID,0,VALID,94.6286,VALID,0.100563,VALID,23.0984,VALID,145,VALID,0.141016,
2008-05-28, 01:56:04,VALID,1004.68,VALID,0,VALID,94.6439,VALID,0.100563,VALID,23.1002,VALID,83,VALID,0.521484,
2008-05-28, 01:57:04,VALID,1004.68,VALID,0,VALID,94.8041,VALID,0,VALID,23.0595,VALID,350,VALID,0.553516,
2008-05-28, 01:58:04,VALID,1004.67,VALID,0,VALID,94.8194,VALID,0.100563,VALID,23.0807,VALID,349,VALID,0.407422,
2008-05-28, 01:59:04,VALID,1004.69,VALID,0,VALID,94.8728,VALID,0,VALID,23.0613,VALID,349,VALID,0.259375,
2008-05-28, 02:00:04,VALID,1004.67,VALID,0,VALID,94.8575,VALID,0.100563,VALID,23.0613,VALID,350,VALID,0.452734,
2008-05-28, 02:01:04,VALID,1004.71,VALID,0,VALID,94.9338,VALID,0.100563,VALID,23.0206,VALID,22,VALID,0.323047,
2008-05-28, 02:02:04,VALID,1004.67,VALID,0,VALID,94.9719,VALID,0.100563,VALID,23.0418,VALID,22,VALID,0.229687,
2008-05-28, 02:03:04,VALID,1004.68,VALID,0,VALID,95.0101,VALID,0.100563,VALID,23.0224,VALID,22,VALID,0,
2008-05-28, 02:04:04,VALID,1004.65,VALID,0,VALID,95.0253,VALID,0.100563,VALID,23.0012,VALID,22,VALID,0.163281,
2008-05-28, 02:05:04,VALID,1004.61,VALID,0,VALID,95.033,VALID,0.100563,VALID,23.0012,VALID,22,VALID,0.248047,
2008-05-28, 02:06:04,VALID,1004.62,VALID,0,VALID,95.0711,VALID,0.100563,VALID,23.0224,VALID,22,VALID,0.0359375,
2008-05-28, 02:07:04,VALID,1004.61,VALID,0,VALID,95.1779,VALID,0.100563,VALID,23.0224,VALID,22,VALID,0.127734,
2008-05-28, 02:08:04,VALID,1004.62,VALID,0,VALID,95.2084,VALID,0.100563,VALID,23.0206,VALID,22,VALID,0,
2008-05-28, 02:09:04,VALID,1004.65,VALID,0,VALID,95.1855,VALID,0.100563,VALID,23.0418,VALID,26,VALID,0.276172,
2008-05-28, 02:10:04,VALID,1004.61,VALID,0,VALID,95.155,VALID,0.100563,VALID,23.0224,VALID,32,VALID,0,
2008-05-28, 02:11:04,VALID,1004.58,VALID,0,VALID,95.1779,VALID,0.201126,VALID,23.0224,VALID,69,VALID,0.2,
2008-05-28, 02:12:04,VALID,1004.57,VALID,0,VALID,95.1855,VALID,0.100563,VALID,23.0224,VALID,100,VALID,0.495703,
2008-05-28, 02:13:04,VALID,1004.51,VALID,0,VALID,95.1779,VALID,0.100563,VALID,23.0224,VALID,111,VALID,0.554688,
2008-05-28, 02:14:04,VALID,1004.48,VALID,0,VALID,95.1398,VALID,0.100563,VALID,23.0418,VALID,85,VALID,0.470313,
2008-05-28, 02:15:04,VALID,1004.46,VALID,0,VALID,95.1245,VALID,0.100563,VALID,23.0224,VALID,85,VALID,0.0996094,
2008-05-28, 02:16:04,VALID,1004.42,VALID,0,VALID,95.0635,VALID,0.100563,VALID,23.0012,VALID,59,VALID,0.415625,
2008-05-28, 02:17:04,VALID,1004.42,VALID,0,VALID,95.0711,VALID,0.100563,VALID,23.0029,VALID,56,VALID,0.299219,
2008-05-28, 02:18:04,VALID,1004.39,VALID,0,VALID,95.1245,VALID,0,VALID,22.9622,VALID,56,VALID,0,
2008-05-28, 02:19:04,VALID,1004.39,VALID,0,VALID,95.1779,VALID,0,VALID,23.0046,VALID,56,VALID,0.0914062,
2008-05-28, 02:20:04,VALID,1004.41,VALID,0,VALID,95.2161,VALID,0,VALID,22.964,VALID,56,VALID,0,
2008-05-28, 02:21:04,VALID,1004.41,VALID,0,VALID,95.2466,VALID,0,VALID,23.0046,VALID,55,VALID,0.0078125,
2008-05-28, 02:22:04,VALID,1004.41,VALID,0,VALID,95.2542,VALID,0,VALID,23.0046,VALID,33,VALID,0.00703125,
2008-05-28, 02:23:04,VALID,1004.4,VALID,0,VALID,95.2923,VALID,0,VALID,23.0029,VALID,33,VALID,0.130859,
2008-05-28, 02:24:04,VALID,1004.45,VALID,0,VALID,95.3534,VALID,0,VALID,23.0029,VALID,33,VALID,0.155078,
2008-05-28, 02:25:04,VALID,1004.42,VALID,0,VALID,95.3915,VALID,0,VALID,23.0224,VALID,33,VALID,0.034375,
2008-05-28, 02:26:04,VALID,1004.44,VALID,0,VALID,95.4526,VALID,0,VALID,23.0436,VALID,33,VALID,0.244141,
2008-05-28, 02:27:04,VALID,1004.47,VALID,0,VALID,95.4373,VALID,0,VALID,23.0206,VALID,33,VALID,0.240625,
2008-05-28, 02:28:04,VALID,1004.43,VALID,0,VALID,95.4373,VALID,0,VALID,23.0224,VALID,33,VALID,0.25,
2008-05-28, 02:29:04,VALID,1004.43,VALID,0,VALID,95.4068,VALID,0,VALID,23.0436,VALID,33,VALID,0.423828,
2008-05-28, 02:30:04,VALID,1004.37,VALID,0,VALID,95.4068,VALID,0,VALID,23.0224,VALID,33,VALID,0.295312,
2008-05-28, 02:31:04,VALID,1004.31,VALID,0,VALID,95.4754,VALID,0,VALID,23.0224,VALID,33,VALID,0.326562,
2008-05-28, 02:32:04,VALID,1004.29,VALID,0,VALID,95.4983,VALID,0,VALID,23.0224,VALID,10,VALID,0.279297,
2008-05-28, 02:33:04,VALID,1004.27,VALID,0,VALID,95.5136,VALID,0,VALID,23.0418,VALID,10,VALID,0.278516,
2008-05-28, 02:34:04,VALID,1004.27,VALID,0,VALID,95.5212,VALID,0,VALID,23.063,VALID,10,VALID,0.264062,
2008-05-28, 02:35:04,VALID,1004.26,VALID,0,VALID,95.5441,VALID,0,VALID,23.063,VALID,11,VALID,0.0632813,
2008-05-28, 02:36:04,VALID,1004.27,VALID,0,VALID,95.5517,VALID,0,VALID,23.0613,VALID,40,VALID,0.234375,
2008-05-28, 02:37:04,VALID,1004.28,VALID,0,VALID,95.5594,VALID,0,VALID,23.0613,VALID,41,VALID,0.347656,
2008-05-28, 02:38:04,VALID,1004.29,VALID,0,VALID,95.5288,VALID,0,VALID,23.0825,VALID,41,VALID,0.294922,
2008-05-28, 02:39:04,VALID,1004.31,VALID,0,VALID,95.5365,VALID,0.100563,VALID,23.0613,VALID,79,VALID,0.296094,
2008-05-28, 02:40:04,VALID,1004.27,VALID,0,VALID,95.5441,VALID,0,VALID,23.0825,VALID,79,VALID,0.526172,
2008-05-28, 02:41:04,VALID,1004.27,VALID,0,VALID,95.5136,VALID,0,VALID,23.0613,VALID,78,VALID,0.701172,
2008-05-28, 02:42:04,VALID,1004.25,VALID,0,VALID,95.5288,VALID,0,VALID,23.0825,VALID,78,VALID,0.442187,
2008-05-28, 02:43:04,VALID,1004.23,VALID,0,VALID,95.5594,VALID,0,VALID,23.1019,VALID,78,VALID,0.0253906,
2008-05-28, 02:44:04,VALID,1004.21,VALID,0,VALID,95.5594,VALID,0,VALID,23.0807,VALID,78,VALID,0.0441406,
2008-05-28, 02:45:04,VALID,1004.2,VALID,0,VALID,95.5746,VALID,0,VALID,23.1214,VALID,78,VALID,0.244922,
2008-05-28, 02:46:04,VALID,1004.2,VALID,0,VALID,95.567,VALID,0,VALID,23.1409,VALID,78,VALID,0.366797,
2008-05-28, 02:47:04,VALID,1004.2,VALID,0,VALID,95.567,VALID,0,VALID,23.1197,VALID,79,VALID,0.361328,
2008-05-28, 02:48:04,VALID,1004.17,VALID,0,VALID,95.5441,VALID,0,VALID,23.1409,VALID,82,VALID,0.473437,
2008-05-28, 02:49:04,VALID,1004.13,VALID,0,VALID,95.5212,VALID,0,VALID,23.1603,VALID,74,VALID,0.198828,
2008-05-28, 02:50:04,VALID,1004.11,VALID,0,VALID,95.4907,VALID,0,VALID,23.1409,VALID,74,VALID,0.169531,
2008-05-28, 02:51:04,VALID,1004.04,VALID,0,VALID,95.4831,VALID,0,VALID,23.1409,VALID,74,VALID,0,
2008-05-28, 02:52:04,VALID,1004.01,VALID,0,VALID,95.4602,VALID,0,VALID,23.1391,VALID,74,VALID,0.212891,
2008-05-28, 02:53:04,VALID,1003.97,VALID,0,VALID,95.4602,VALID,0,VALID,23.1603,VALID,71,VALID,0.265625,
2008-05-28, 02:54:04,VALID,1004,VALID,0,VALID,95.4678,VALID,0,VALID,23.1603,VALID,71,VALID,0.185937,
2008-05-28, 02:55:04,VALID,1003.99,VALID,0,VALID,95.4526,VALID,0,VALID,23.1816,VALID,71,VALID,0.0355469,
2008-05-28, 02:56:04,VALID,1003.96,VALID,0,VALID,95.4602,VALID,0,VALID,23.1197,VALID,71,VALID,0.174219,
2008-05-28, 02:57:04,VALID,1003.93,VALID,0,VALID,95.422,VALID,0,VALID,23.1409,VALID,25,VALID,0.582422,
2008-05-28, 02:58:04,VALID,1003.92,VALID,0,VALID,95.4297,VALID,0,VALID,23.1002,VALID,23,VALID,0.320313,
2008-05-28, 02:59:04,VALID,1003.91,VALID,0,VALID,95.4754,VALID,0,VALID,23.1002,VALID,23,VALID,0.0046875,
2008-05-28, 03:00:04,VALID,1003.93,VALID,0,VALID,95.5212,VALID,0,VALID,23.1409,VALID,23,VALID,0,
2008-05-28, 03:01:04,VALID,1003.91,VALID,0,VALID,95.5365,VALID,0,VALID,23.1409,VALID,23,VALID,0.142578,
2008-05-28, 03:02:04,VALID,1003.89,VALID,0,VALID,95.5594,VALID,0,VALID,23.1409,VALID,12,VALID,0.510547,
2008-05-28, 03:03:04,VALID,1003.9,VALID,0,VALID,95.5136,VALID,0,VALID,23.1391,VALID,353,VALID,0.616016,
2008-05-28, 03:04:04,VALID,1003.89,VALID,0,VALID,95.4983,VALID,0,VALID,23.1603,VALID,344,VALID,0.655078,
2008-05-28, 03:05:04,VALID,1003.85,VALID,0,VALID,95.4983,VALID,0,VALID,23.1798,VALID,347,VALID,0.23125,
2008-05-28, 03:06:04,VALID,1003.84,VALID,0,VALID,95.5288,VALID,0,VALID,23.1993,VALID,351,VALID,0.609766,
2008-05-28, 03:07:04,VALID,1003.82,VALID,0,VALID,95.5594,VALID,0,VALID,23.1993,VALID,350,VALID,0.178906,
2008-05-28, 03:08:04,VALID,1003.82,VALID,0,VALID,95.5594,VALID,0,VALID,23.2187,VALID,350,VALID,0.078125,
2008-05-28, 03:09:04,VALID,1003.81,VALID,0,VALID,95.5212,VALID,0,VALID,23.2187,VALID,350,VALID,0.347656,
2008-05-28, 03:10:04,VALID,1003.82,VALID,0,VALID,95.5212,VALID,0,VALID,23.217,VALID,350,VALID,0.217969,
2008-05-28, 03:11:04,VALID,1003.82,VALID,0,VALID,95.5288,VALID,0,VALID,23.2382,VALID,350,VALID,0.371875,
2008-05-28, 03:12:04,VALID,1003.8,VALID,0,VALID,95.5212,VALID,0,VALID,23.217,VALID,350,VALID,0.326562,
2008-05-28, 03:13:04,VALID,1003.8,VALID,0,VALID,95.506,VALID,0,VALID,23.2382,VALID,350,VALID,0.205469,
2008-05-28, 03:14:04,VALID,1003.84,VALID,0,VALID,95.4831,VALID,0,VALID,23.2382,VALID,358,VALID,0.328516,
2008-05-28, 03:15:04,VALID,1003.82,VALID,0,VALID,95.4907,VALID,0,VALID,23.217,VALID,50,VALID,0.529688,
2008-05-28, 03:16:04,VALID,1003.83,VALID,0,VALID,95.506,VALID,0,VALID,23.2187,VALID,61,VALID,0.346484,
2008-05-28, 03:17:04,VALID,1003.86,VALID,0,VALID,95.506,VALID,0,VALID,23.2187,VALID,62,VALID,0.359375,
2008-05-28, 03:18:04,VALID,1003.85,VALID,0,VALID,95.5136,VALID,0,VALID,23.1586,VALID,62,VALID,0.0675781,
2008-05-28, 03:19:04,VALID,1003.85,VALID,0,VALID,95.5136,VALID,0,VALID,23.1798,VALID,62,VALID,0.0847656,
2008-05-28, 03:20:04,VALID,1003.86,VALID,0,VALID,95.506,VALID,0,VALID,23.1603,VALID,62,VALID,0.322656,
2008-05-28, 03:21:04,VALID,1003.87,VALID,0,VALID,95.506,VALID,0,VALID,23.1409,VALID,90,VALID,0.425,
2008-05-28, 03:22:04,VALID,1003.89,VALID,0,VALID,95.5365,VALID,0,VALID,23.1409,VALID,91,VALID,0.367578,
2008-05-28, 03:23:04,VALID,1003.89,VALID,0,VALID,95.5822,VALID,0.100563,VALID,23.1603,VALID,99,VALID,0.554297,
2008-05-28, 03:24:04,VALID,1003.87,VALID,0,VALID,95.628,VALID,0,VALID,23.1816,VALID,117,VALID,0.402344,
2008-05-28, 03:25:04,VALID,1003.88,VALID,0,VALID,95.6662,VALID,0,VALID,23.1993,VALID,113,VALID,0.823438,
2008-05-28, 03:26:04,VALID,1003.83,VALID,0,VALID,95.6662,VALID,0,VALID,23.217,VALID,93,VALID,1.0543,
2008-05-28, 03:27:04,VALID,1003.84,VALID,0,VALID,95.6433,VALID,0,VALID,23.2577,VALID,81,VALID,0.371875,
2008-05-28, 03:28:04,VALID,1003.86,VALID,0,VALID,95.6128,VALID,0,VALID,23.2983,VALID,81,VALID,0.0390625,
2008-05-28, 03:29:04,VALID,1003.84,VALID,0,VALID,95.5136,VALID,0,VALID,23.2577,VALID,80,VALID,0.222266,
2008-05-28, 03:30:04,VALID,1003.85,VALID,0,VALID,95.4754,VALID,0,VALID,23.2789,VALID,60,VALID,0.217969,
2008-05-28, 03:31:04,VALID,1003.84,VALID,0,VALID,95.5136,VALID,0,VALID,23.2364,VALID,60,VALID,0.107031,
2008-05-28, 03:32:04,VALID,1003.9,VALID,0,VALID,95.5594,VALID,0,VALID,23.2771,VALID,73,VALID,0.290625,
2008-05-28, 03:33:04,VALID,1003.9,VALID,0,VALID,95.5822,VALID,0,VALID,23.2966,VALID,54,VALID,0.224609,
2008-05-28, 03:34:04,VALID,1003.93,VALID,0,VALID,95.5746,VALID,0.100563,VALID,23.2948,VALID,54,VALID,0.299219,
2008-05-28, 03:35:04,VALID,1003.91,VALID,0,VALID,95.5288,VALID,0.100563,VALID,23.2948,VALID,54,VALID,0.220703,
2008-05-28, 03:36:04,VALID,1003.95,VALID,0,VALID,95.4907,VALID,0.100563,VALID,23.2948,VALID,54,VALID,0.175391,
2008-05-28, 03:37:04,VALID,1003.93,VALID,0,VALID,95.4831,VALID,0.100563,VALID,23.2541,VALID,53,VALID,0.380078,
2008-05-28, 03:38:04,VALID,1003.9,VALID,0,VALID,95.5365,VALID,0.100563,VALID,23.2754,VALID,53,VALID,0.211719,
2008-05-28, 03:39:04,VALID,1003.92,VALID,0,VALID,95.5288,VALID,0.100563,VALID,23.2754,VALID,54,VALID,0.112109,
2008-05-28, 03:40:04,VALID,1003.88,VALID,0,VALID,95.6585,VALID,0.201126,VALID,23.3143,VALID,85,VALID,0.391016,
2008-05-28, 03:41:04,VALID,1003.88,VALID,0,VALID,95.7424,VALID,0.100563,VALID,23.3514,VALID,81,VALID,0.528125,
2008-05-28, 03:42:04,VALID,1003.9,VALID,0,VALID,95.7196,VALID,0,VALID,23.3921,VALID,45,VALID,0.326562,